Cloud_Cover
100 100 100 100 100 100 100 100 100 100 100 100 100 100 100 100 15 61 100 100 97 96 70 21 5 25 62 50 86 100 100 75 98 100 99 99 95 98 100 100 100 100 100 100 100 100 100 100 59 99 100 100 100 100
100 100 100 100 100 100 100 100 100 100 100 100 100 100 100 65 5 80 100 100 100 100 99 57 9 5 5 8 21 100 57 48 100 100 87 100 100 99 100 100 100 100 84 100 100 100 100 100 100 100 100 100 100 100
100 100 100 100 100 100 100 100 100 100 100 100 100 99 6 4 4 84 100 100 100 100 83 92 17 5 3 52 79 100 100 20 90 86 97 100 100 59 100 100 100 100 100 99 100 100 100 100 100 100 100 100 100 100
100 100 100 100 100 100 100 100 100 100 100 100 97 5 4 4 4 97 98 94 100 100 99 68 5 4 5 6 62 79 100 56 10 81 99 100 100 58 100 91 100 100 100 100 100 100 100 100 100 100 100 100 100 100
100 100 99 35 99 82 29 25 22 6 10 99 25 5 5 12 38 87 100 97 94 80 100 89 62 5 5 5 10 57 77 100 100 90 93 98 86 84 72 59 99 100 100 100 100 100 100 100 100 100 96 95 100 100
100 98 66 68 96 88 5 5 5 12 53 80 5 5 75 100 99 100 100 94 99 98 100 91 12 59 28 5 5 9 20 75 100 92 76 98 35 99 99 100 100 100 100 100 100 100 100 96 99 100 100 97 99 90
92 96 96 100 95 78 25 5 37 66 94 95 11 92 81 99 100 100 71 96 90 100 100 98 100 100 100 100 87 42 72 92 74 92 42 73 87 31 75 100 100 100 100 100 100 100 100 100 100 100 88 93 78 89
100 100 100 100 42 91 8 5 18 100 12 28 66 100 100 100 100 100 99 100 100 100 100 100 76 98 100 100 93 58 86 72 95 81 87 74 87 99 100 93 92 92 100 100 100 100 100 100 90 97 90 89 98 98
100 100 100 100 91 5 5 2 56 22 11 100 100 100 100 100 100 100 100 100 100 100 100 100 86 99 88 94 100 76 97 93 70 100 86 42 100 99 98 89 99 91 81 71 100 100 100 100 99 99 100 100 100 100
100 100 40 38 16 5 5 11 89 5 100 100 100 100 100 100 100 100 100 100 100 100 83 100 67 85 72 100 100 98 55 87 89 78 100 100 100 100 100 100 100 84 61 51 99 100 100 100 100 99 97 100 100 100
99 8 18 91 61 5 5 98 23 15 100 100 100 100 100 100 100 100 100 100 98 92 100 100 78 81 77 100 93 76 70 54 92 78 98 100 100 100 100 100 100 84 63 70 80 99 100 100 100 100 100 100 100 100
68 5 72 97 5 32 100 83 5 79 100 100 100 100 100 100 100 96 100 100 100 54 91 100 99 99 90 91 88 100 87 85 88 87 96 100 100 100 100 100 100 89 93 96 91 99 99 100 100 100 100 100 100 100
27 41 5 5 5 44 100 39 94 100 100 100 100 100 100 100 94 90 100 100 91 59 80 79 94 86 67 100 100 96 99 96 63 100 98 100 100 100 99 100 95 94 100 100 96 96 100 97 93 97 100 100 100 100
75 5 54 7 24 31 90 100 100 100 100 100 100 100 98 92 94 100 100 31 17 41 82 100 72 100 100 100 100 98 96 86 100 98 99 100 100 100 100 100 100 100 100 100 100 100 100 100 100 100 100 100 100 100
5 5 10 8 100 100 100 100 100 100 100 100 100 86 94 98 100 100 85 36 100 28 99 99 89 80 97 97 94 98 100 100 100 100 100 100 100 100 100 100 99 99 100 100 100 100 100 100 100 100 100 100 93 87
61 89 99 91 100 100 100 100 100 100 100 86 53 85 86 97 100 99 96 97 99 100 61 41 78 99 98 100 98 100 100 100 100 100 100 100 100 95 98 91 94 100 100 100 100 100 100 100 100 100 100 100 100 98
100 100 100 100 100 100 100 100 100 100 100 63 96 77 100 94 92 100 100 95 100 75 84 68 94 97 73 81 80 100 100 100 100 100 100 99 86 89 92 90 94 100 100 100 100 93 97 100 100 99 100 100 99 61
100 100 100 100 100 100 100 100 100 94 92 98 85 100 85 92 100 100 100 96 98 99 54 72 6 65 62 56 100 100 100 100 100 100 100 100 100 93 91 89 95 93 95 89 97 98 99 100 98 99 97 100 98 100
100 100 100 100 100 100 100 100 100 100 100 93 100 95 96 98 93 95 83 100 83 93 92 38 28 31 90 100 97 100 99 100 96 100 93 98 100 88 95 98 96 100 99 96 100 99 100 100 100 100 100 100 100 100
100 100 100 100 100 100 100 100 100 100 100 100 100 100 100 100 94 100 98 100 100 100 100 95 52 96 100 96 83 94 99 98 93 100 100 100 96 98 100 97 100 97 97 97 98 66 100 100 100 100 92 94 100 100
100 100 100 100 96 98 100 100 100 100 100 95 99 98 100 93 98 100 100 100 100 98 84 76 100 100 86 84 87 72 97 93 100 92 93 96 98 100 96 100 98 100 100 100 100 100 74 100 100 100 100 100 100 100
100 100 100 93 77 82 100 100 75 91 93 100 100 96 100 100 100 100 100 100 100 96 100 99 94 82 71 55 45 55 52 75 67 69 96 85 100 99 100 100 100 100 100 100 100 100 100 100 100 100 100 100 75 100
100 100 100 100 100 99 76 84 74 75 89 99 99 98 100 100 91 98 100 92 100 98 93 98 95 89 59 25 8 13 11 33 46 88 97 98 100 100 100 100 99 96 100 100 100 100 100 74 69 92 100 99 100 100
100 100 100 100 100 100 71 72 88 89 99 100 98 99 95 92 88 93 84 99 99 99 100 93 96 96 78 34 65 72 48 58 65 99 100 100 98 92 71 46 42 14 73 62 100 100 99 100 64 93 100 100 100 100
100 100 100 100 100 100 100 90 71 51 99 73 80 89 86 32 50 42 45 100 100 100 98 96 87 60 96 89 100 85 76 99 100 100 93 94 82 94 77 68 45 36 61 100 100 100 100 100 100 100 100 100 100 100
100 100 100 100 100 98 99 55 22 40 5 63 92 96 78 49 13 6 22 100 100 100 99 96 98 97 97 87 89 99 100 100 100 99 84 67 83 80 76 61 88 99 88 97 100 100 98 89 95 100 100 100 90 80
90 99 98 77 82 88 68 36 17 52 37 89 97 95 48 5 6 79 100 100 97 98 99 95 64 48 58 84 100 100 98 91 87 98 100 100 84 65 61 68 62 98 100 70 71 67 79 85 97 100 100 100 100 100
98 96 98 84 88 47 41 38 37 67 100 93 59 39 5 6 65 100 100 99 100 93 61 58 65 86 92 100 100 100 92 99 98 100 100 99 76 78 100 89 63 38 79 73 88 81 100 100 100 100 100 100 100 100
58 34 31 29 24 75 100 98 100 100 100 92 65 89 100 100 100 100 100 100 94 65 76 85 98 95 97 100 100 99 98 99 100 100 100 100 93 100 100 96 100 100 100 100 71 84 100 100 100 100 100 96 97 100
27 23 5 10 26 95 100 100 100 100 100 99 97 99 100 100 100 100 100 100 100 96 100 100 100 98 100 100 94 98 100 100 100 100 100 91 98 100 100 100 100 93 87 94 72 77 43 63 89 99 87 99 99 97
33 5 45 93 100 100 100 100 93 76 96 93 96 96 100 100 100 100 100 100 100 100 100 98 98 99 97 89 98 99 100 94 100 100 99 98 100 100 99 90 97 100 91 63 12 5 5 9 45 41 6 5 5 5
32 35 35 78 100 100 100 72 97 100 100 100 100 99 100 100 100 100 100 100 100 100 98 85 100 90 84 100 100 98 100 100 100 100 84 100 96 97 97 78 25 44 26 9 37 12 5 5 5 5 5 5 5 5
77 77 91 92 100 100 93 68 62 100 98 100 100 96 95 95 99 100 100 100 100 95 83 96 99 97 100 100 100 100 100 100 100 100 100 93 67 44 52 86 73 21 5 5 5 5 5 5 5 5 5 5 5 34